Time,TemperatureF,DewpointF,PressureIn,WindDirection,WindDirectionDegrees,WindSpeedMPH,WindSpeedGustMPH,Humidity,HourlyPrecipIn,Conditions,Clouds,dailyrainin,SoftwareType,DateUTC
2013-09-29 00:01:00,49.3,24.1,29.95,NNW,336,0.0,0.0,37,0.00,,---,0.00,VWS V14.01,2013-09-29 04:01:00,
2013-09-29 00:06:00,49.3,24.1,29.95,NNW,336,0.0,0.0,37,0.00,,---,0.00,VWS V14.01,2013-09-29 04:06:00,
2013-09-29 00:11:00,49.1,24.0,29.95,NNW,336,0.0,0.0,37,0.00,,---,0.00,VWS V14.01,2013-09-29 04:11:00,
2013-09-29 00:16:00,49.3,24.1,29.95,NNE,24,0.0,0.0,37,0.00,,---,0.00,VWS V14.01,2013-09-29 04:16:00,
2013-09-29 00:21:00,49.5,24.3,29.95,NNE,24,0.0,0.0,37,0.00,,---,0.00,VWS V14.01,2013-09-29 04:21:00,
2013-09-29 00:26:00,49.5,24.3,29.95,NNE,24,0.0,0.0,37,0.00,,---,0.00,VWS V14.01,2013-09-29 04:26:00,
2013-09-29 00:31:00,49.5,24.3,29.95,NNE,24,0.0,0.0,37,0.00,,---,0.00,VWS V14.01,2013-09-29 04:31:00,
2013-09-29 00:36:00,49.5,24.3,29.95,NNE,24,0.0,0.0,37,0.00,,---,0.00,VWS V14.01,2013-09-29 04:36:00,
2013-09-29 00:41:00,49.6,24.5,29.95,NNW,333,0.0,0.0,37,0.00,,---,0.00,VWS V14.01,2013-09-29 04:41:00,
2013-09-29 00:46:00,49.6,24.5,29.95,NNW,344,0.0,0.0,37,0.00,,---,0.00,VWS V14.01,2013-09-29 04:46:00,
2013-09-29 00:51:00,49.6,24.5,29.95,NNW,344,0.0,0.0,37,0.00,,---,0.00,VWS V14.01,2013-09-29 04:51:00,
2013-09-29 00:56:00,49.6,24.5,29.95,North,0,0.0,0.0,37,0.00,,---,0.00,VWS V14.01,2013-09-29 04:56:00,
2013-09-29 01:01:00,49.6,24.5,29.95,North,0,0.0,0.0,37,0.00,,---,0.00,VWS V14.01,2013-09-29 05:01:00,
2013-09-29 01:06:00,49.8,24.6,29.95,North,0,0.0,0.0,37,0.00,,---,0.00,VWS V14.01,2013-09-29 05:06:00,
2013-09-29 01:11:00,49.6,24.5,29.95,North,0,0.0,0.0,37,0.00,,---,0.00,VWS V14.01,2013-09-29 05:11:00,
2013-09-29 01:16:00,49.6,24.5,29.95,NNE,12,0.0,0.0,37,0.00,,---,0.00,VWS V14.01,2013-09-29 05:16:00,
2013-09-29 01:21:00,49.5,24.3,29.95,NNE,12,0.0,0.0,37,0.00,,---,0.00,VWS V14.01,2013-09-29 05:21:00,
2013-09-29 01:26:00,49.6,24.5,29.95,NNE,31,0.0,0.0,37,0.00,,---,0.00,VWS V14.01,2013-09-29 05:26:00,
2013-09-29 01:31:00,49.6,24.5,29.95,NNE,31,0.0,0.0,37,0.00,,---,0.00,VWS V14.01,2013-09-29 05:31:00,
2013-09-29 01:36:00,49.6,24.5,29.95,NNW,346,0.0,0.0,37,0.00,,---,0.00,VWS V14.01,2013-09-29 05:36:00,
2013-09-29 01:41:00,49.6,24.5,29.95,NNW,331,0.0,0.0,37,0.00,,---,0.00,VWS V14.01,2013-09-29 05:41:00,
2013-09-29 01:46:00,49.5,24.3,29.95,NNW,331,0.0,0.0,37,0.00,,---,0.00,VWS V14.01,2013-09-29 05:46:00,
2013-09-29 01:51:00,49.3,24.1,29.95,NNW,331,0.0,0.0,37,0.00,,---,0.00,VWS V14.01,2013-09-29 05:51:00,
2013-09-29 01:56:00,49.1,24.0,29.95,NNW,331,0.0,0.0,37,0.00,,---,0.00,VWS V14.01,2013-09-29 05:56:00,
2013-09-29 02:01:00,48.9,23.8,29.95,NNW,331,0.0,0.0,37,0.00,,---,0.00,VWS V14.01,2013-09-29 06:01:00,
2013-09-29 02:06:00,48.9,23.8,29.95,NNW,331,0.0,0.0,37,0.00,,---,0.00,VWS V14.01,2013-09-29 06:06:00,
2013-09-29 02:11:00,48.7,23.6,29.95,NNW,331,0.0,0.0,37,0.00,,---,0.00,VWS V14.01,2013-09-29 06:11:00,
2013-09-29 02:16:00,48.6,23.5,29.95,NNW,331,0.0,0.0,37,0.00,,---,0.00,VWS V14.01,2013-09-29 06:16:00,
2013-09-29 02:21:00,48.6,23.5,29.95,NNW,331,0.0,0.0,37,0.00,,---,0.00,VWS V14.01,2013-09-29 06:21:00,
2013-09-29 02:26:00,48.4,23.3,29.95,NNW,331,0.0,0.0,37,0.00,,---,0.00,VWS V14.01,2013-09-29 06:26:00,
2013-09-29 02:31:00,48.2,23.2,29.95,NNW,331,0.0,0.0,37,0.00,,---,0.00,VWS V14.01,2013-09-29 06:31:00,
2013-09-29 02:36:00,48.0,23.6,29.95,NNW,331,0.0,0.0,38,0.00,,---,0.00,VWS V14.01,2013-09-29 06:36:00,
2013-09-29 02:41:00,48.0,23.6,29.95,NNW,331,0.0,0.0,38,0.00,,---,0.00,VWS V14.01,2013-09-29 06:41:00,
2013-09-29 02:46:00,48.0,23.6,29.95,NNW,331,0.0,0.0,38,0.00,,---,0.00,VWS V14.01,2013-09-29 06:46:00,
2013-09-29 02:51:00,48.0,23.6,29.95,NNW,331,0.0,0.0,38,0.00,,---,0.00,VWS V14.01,2013-09-29 06:51:00,
2013-09-29 02:56:00,48.0,23.6,29.95,NNW,331,0.0,0.0,38,0.00,,---,0.00,VWS V14.01,2013-09-29 06:56:00,
2013-09-29 03:01:00,48.0,23.6,29.95,NNW,331,0.0,0.0,38,0.00,,---,0.00,VWS V14.01,2013-09-29 07:01:00,
2013-09-29 03:06:00,48.0,23.6,29.95,NNW,331,0.0,0.0,38,0.00,,---,0.00,VWS V14.01,2013-09-29 07:06:00,
2013-09-29 03:11:00,48.0,23.6,29.95,NNW,331,0.0,0.0,38,0.00,,---,0.00,VWS V14.01,2013-09-29 07:11:00,
2013-09-29 03:16:00,48.0,23.6,29.92,NNW,331,0.0,0.0,38,0.00,,---,0.00,VWS V14.01,2013-09-29 07:16:00,
2013-09-29 03:21:00,47.8,23.5,29.92,NNW,331,0.0,0.0,38,0.00,,---,0.00,VWS V14.01,2013-09-29 07:21:00,
2013-09-29 03:26:00,47.8,23.5,29.92,NNW,331,0.0,0.0,38,0.00,,---,0.00,VWS V14.01,2013-09-29 07:26:00,
2013-09-29 03:31:00,47.8,23.5,29.95,NNW,331,0.0,0.0,38,0.00,,---,0.00,VWS V14.01,2013-09-29 07:31:00,
2013-09-29 03:36:00,47.8,23.5,29.95,NNW,331,0.0,0.0,38,0.00,,---,0.00,VWS V14.01,2013-09-29 07:36:00,
2013-09-29 03:41:00,47.8,23.5,29.95,NNW,331,0.0,0.0,38,0.00,,---,0.00,VWS V14.01,2013-09-29 07:41:00,
2013-09-29 03:46:00,47.8,23.5,29.92,NNW,331,0.0,0.0,38,0.00,,---,0.00,VWS V14.01,2013-09-29 07:46:00,
2013-09-29 03:51:00,48.0,23.6,29.92,NNW,331,0.0,0.0,38,0.00,,---,0.00,VWS V14.01,2013-09-29 07:51:00,
2013-09-29 03:56:00,48.0,23.6,29.92,NNW,331,0.0,0.0,38,0.00,,---,0.00,VWS V14.01,2013-09-29 07:56:00,
2013-09-29 04:01:00,47.8,23.5,29.92,NNW,331,0.0,0.0,38,0.00,,---,0.00,VWS V14.01,2013-09-29 08:01:00,
2013-09-29 04:06:00,47.8,23.5,29.92,NNW,331,0.0,0.0,38,0.00,,---,0.00,VWS V14.01,2013-09-29 08:06:00,
2013-09-29 04:11:00,47.8,23.5,29.92,NNW,331,0.0,0.0,38,0.00,,---,0.00,VWS V14.01,2013-09-29 08:11:00,
2013-09-29 04:16:00,47.8,23.5,29.92,NNW,331,0.0,0.0,38,0.00,,---,0.00,VWS V14.01,2013-09-29 08:16:00,
2013-09-29 04:21:00,47.8,23.5,29.92,NNW,331,0.0,0.0,38,0.00,,---,0.00,VWS V14.01,2013-09-29 08:21:00,
2013-09-29 04:26:00,47.8,23.5,29.92,NNW,331,0.0,0.0,38,0.00,,---,0.00,VWS V14.01,2013-09-29 08:26:00,
2013-09-29 04:31:00,47.8,23.5,29.92,NNW,331,0.0,0.0,38,0.00,,---,0.00,VWS V14.01,2013-09-29 08:31:00,
2013-09-29 04:36:00,47.7,23.3,29.92,NNW,331,0.0,0.0,38,0.00,,---,0.00,VWS V14.01,2013-09-29 08:36:00,
2013-09-29 04:41:00,47.8,23.5,29.92,NNW,331,0.0,0.0,38,0.00,,---,0.00,VWS V14.01,2013-09-29 08:41:00,
2013-09-29 04:46:00,47.8,23.5,29.92,NNW,331,0.0,0.0,38,0.00,,---,0.00,VWS V14.01,2013-09-29 08:46:00,
2013-09-29 04:51:00,48.0,23.6,29.92,NNW,331,0.0,0.0,38,0.00,,---,0.00,VWS V14.01,2013-09-29 08:51:00,
2013-09-29 04:56:00,48.4,23.3,29.92,NNW,331,0.0,0.0,37,0.00,,---,0.00,VWS V14.01,2013-09-29 08:56:00,
2013-09-29 05:01:00,48.6,23.5,29.92,NNW,331,0.0,0.0,37,0.00,,---,0.00,VWS V14.01,2013-09-29 09:01:00,
2013-09-29 05:06:00,48.7,23.6,29.92,NNW,331,0.0,0.0,37,0.00,,---,0.00,VWS V14.01,2013-09-29 09:06:00,
2013-09-29 05:11:00,48.7,23.6,29.92,NNW,331,0.0,0.0,37,0.00,,---,0.00,VWS V14.01,2013-09-29 09:11:00,
2013-09-29 05:16:00,48.7,23.6,29.92,NNW,331,0.0,0.0,37,0.00,,---,0.00,VWS V14.01,2013-09-29 09:16:00,
2013-09-29 05:21:00,48.9,23.8,29.92,NNW,331,0.0,0.0,37,0.00,,---,0.00,VWS V14.01,2013-09-29 09:21:00,
2013-09-29 05:26:00,48.9,23.8,29.92,NNW,331,0.0,0.0,37,0.00,,---,0.00,VWS V14.01,2013-09-29 09:26:00,
2013-09-29 05:31:00,48.9,23.8,29.92,NNW,331,0.0,0.0,37,0.00,,---,0.00,VWS V14.01,2013-09-29 09:31:00,
2013-09-29 05:36:00,49.1,24.0,29.92,NNW,331,0.0,0.0,37,0.00,,---,0.00,VWS V14.01,2013-09-29 09:36:00,
2013-09-29 05:41:00,49.1,24.0,29.92,NNW,331,0.0,0.0,37,0.00,,---,0.00,VWS V14.01,2013-09-29 09:41:00,
2013-09-29 05:46:00,49.3,24.1,29.92,NNW,331,0.0,0.0,37,0.00,,---,0.00,VWS V14.01,2013-09-29 09:46:00,
2013-09-29 05:51:00,49.3,24.1,29.92,NNW,331,0.0,0.0,37,0.00,,---,0.00,VWS V14.01,2013-09-29 09:51:00,
2013-09-29 05:56:00,49.5,24.3,29.92,NNW,331,0.0,0.0,37,0.00,,---,0.00,VWS V14.01,2013-09-29 09:56:00,
2013-09-29 06:01:00,49.6,24.5,29.92,NNW,331,0.0,0.0,37,0.00,,---,0.00,VWS V14.01,2013-09-29 10:01:00,
2013-09-29 06:06:00,49.6,24.5,29.92,NNW,331,0.0,0.0,37,0.00,,---,0.00,VWS V14.01,2013-09-29 10:06:00,
2013-09-29 06:11:00,49.6,24.5,29.92,NNW,331,0.0,0.0,37,0.00,,---,0.00,VWS V14.01,2013-09-29 10:11:00,
2013-09-29 06:16:00,49.6,24.5,29.92,NNW,331,0.0,0.0,37,0.00,,---,0.00,VWS V14.01,2013-09-29 10:16:00,
2013-09-29 06:21:00,49.8,24.6,29.92,NNW,331,0.0,0.0,37,0.00,,---,0.00,VWS V14.01,2013-09-29 10:21:00,
2013-09-29 06:26:00,49.8,24.6,29.92,NNW,331,0.0,0.0,37,0.00,,---,0.00,VWS V14.01,2013-09-29 10:26:00,
2013-09-29 06:31:00,49.8,24.6,29.92,NNW,331,0.0,0.0,37,0.00,,---,0.00,VWS V14.01,2013-09-29 10:31:00,
2013-09-29 06:36:00,49.8,24.6,29.92,NNW,331,0.0,0.0,37,0.00,,---,0.00,VWS V14.01,2013-09-29 10:36:00,
2013-09-29 06:41:00,49.6,24.5,29.92,NNW,331,0.0,0.0,37,0.00,,---,0.00,VWS V14.01,2013-09-29 10:41:00,
2013-09-29 06:46:00,49.6,24.5,29.92,NNW,331,0.0,0.0,37,0.00,,---,0.00,VWS V14.01,2013-09-29 10:46:00,
2013-09-29 06:51:00,49.6,24.5,29.92,NNW,331,0.0,0.0,37,0.00,,---,0.00,VWS V14.01,2013-09-29 10:51:00,
2013-09-29 06:56:00,49.6,24.5,29.92,NNW,331,0.0,0.0,37,0.00,,---,0.00,VWS V14.01,2013-09-29 10:56:00,
2013-09-29 07:01:00,49.6,24.5,29.95,NNW,331,0.0,0.0,37,0.00,,---,0.00,VWS V14.01,2013-09-29 11:01:00,
2013-09-29 07:06:00,49.6,24.5,29.95,NNW,331,0.0,0.0,37,0.00,,---,0.00,VWS V14.01,2013-09-29 11:06:00,
2013-09-29 07:11:00,49.5,24.3,29.95,NNW,331,0.0,0.0,37,0.00,,---,0.00,VWS V14.01,2013-09-29 11:11:00,
2013-09-29 07:16:00,49.3,24.1,29.92,NNW,331,0.0,0.0,37,0.00,,---,0.00,VWS V14.01,2013-09-29 11:16:00,
2013-09-29 07:21:00,49.3,24.1,29.92,NNW,331,0.0,0.0,37,0.00,,---,0.00,VWS V14.01,2013-09-29 11:21:00,
2013-09-29 07:26:00,49.5,24.3,29.92,NNW,331,0.0,0.0,37,0.00,,---,0.00,VWS V14.01,2013-09-29 11:26:00,
2013-09-29 07:31:00,49.5,24.3,29.92,NNW,331,0.0,0.0,37,0.00,,---,0.00,VWS V14.01,2013-09-29 11:31:00,
2013-09-29 07:36:00,49.6,24.5,29.92,NNW,331,0.0,0.0,37,0.00,,---,0.00,VWS V14.01,2013-09-29 11:36:00,
2013-09-29 07:41:00,49.8,24.6,29.92,NNW,331,0.0,0.0,37,0.00,,---,0.00,VWS V14.01,2013-09-29 11:41:00,
2013-09-29 07:46:00,49.8,24.6,29.92,NNW,331,0.0,0.0,37,0.00,,---,0.00,VWS V14.01,2013-09-29 11:46:00,
2013-09-29 07:51:00,50.0,24.8,29.92,NNW,331,0.0,0.0,37,0.00,,---,0.00,VWS V14.01,2013-09-29 11:51:00,
2013-09-29 07:56:00,50.2,24.9,29.92,NNW,331,0.0,0.0,37,0.00,,---,0.00,VWS V14.01,2013-09-29 11:56:00,
2013-09-29 08:01:00,50.4,25.1,29.92,NNW,331,0.0,0.0,37,0.00,,---,0.00,VWS V14.01,2013-09-29 12:01:00,
2013-09-29 08:06:00,50.5,25.2,29.92,NNW,331,0.0,0.0,37,0.00,,---,0.00,VWS V14.01,2013-09-29 12:06:00,
2013-09-29 08:11:00,50.9,25.6,29.92,NNW,331,0.0,0.0,37,0.00,,---,0.00,VWS V14.01,2013-09-29 12:11:00,
2013-09-29 08:16:00,51.1,25.7,29.95,NNW,331,0.0,0.0,37,0.00,,---,0.00,VWS V14.01,2013-09-29 12:16:00,
2013-09-29 08:21:00,51.3,25.9,29.95,NNW,331,0.0,0.0,37,0.00,,---,0.00,VWS V14.01,2013-09-29 12:21:00,
2013-09-29 08:26:00,51.4,26.0,29.95,NNW,331,0.0,0.0,37,0.00,,---,0.00,VWS V14.01,2013-09-29 12:26:00,
2013-09-29 08:31:00,51.4,26.0,29.95,NNW,331,0.0,0.0,37,0.00,,---,0.00,VWS V14.01,2013-09-29 12:31:00,
2013-09-29 08:36:00,51.4,26.0,29.95,NNW,331,0.0,0.0,37,0.00,,---,0.00,VWS V14.01,2013-09-29 12:36:00,
2013-09-29 08:41:00,51.4,26.0,29.95,NNW,331,0.0,0.0,37,0.00,,---,0.00,VWS V14.01,2013-09-29 12:41:00,
2013-09-29 08:46:00,51.3,25.9,29.95,NNW,331,0.0,0.0,37,0.00,,---,0.00,VWS V14.01,2013-09-29 12:46:00,
2013-09-29 08:51:00,51.1,25.7,29.95,NNW,331,0.0,0.0,37,0.00,,---,0.00,VWS V14.01,2013-09-29 12:51:00,
2013-09-29 08:56:00,50.9,25.6,29.95,NNW,331,0.0,0.0,37,0.00,,---,0.00,VWS V14.01,2013-09-29 12:56:00,
2013-09-29 09:01:00,50.9,25.6,29.95,NNW,331,0.0,0.0,37,0.00,,---,0.00,VWS V14.01,2013-09-29 13:01:00,
2013-09-29 09:06:00,50.9,25.6,29.95,NNW,331,0.0,0.0,37,0.00,,---,0.00,VWS V14.01,2013-09-29 13:06:00,
2013-09-29 09:11:00,51.1,25.7,29.95,NNW,331,0.0,0.0,37,0.00,,---,0.00,VWS V14.01,2013-09-29 13:11:00,
2013-09-29 09:16:00,51.3,25.9,29.95,NNW,331,0.0,0.0,37,0.00,,---,0.00,VWS V14.01,2013-09-29 13:16:00,
2013-09-29 09:21:00,51.4,26.0,29.95,NNW,331,0.0,0.0,37,0.00,,---,0.00,VWS V14.01,2013-09-29 13:21:00,
2013-09-29 09:26:00,51.6,26.2,29.95,WNW,301,0.0,0.0,37,0.00,,---,0.00,VWS V14.01,2013-09-29 13:26:00,
2013-09-29 09:31:00,51.8,25.7,29.95,NW,304,0.0,0.0,36,0.00,,---,0.00,VWS V14.01,2013-09-29 13:31:00,
2013-09-29 09:36:00,52.3,26.2,29.95,NW,304,0.0,0.0,36,0.00,,---,0.00,VWS V14.01,2013-09-29 13:36:00,
2013-09-29 09:41:00,52.9,26.7,29.95,NW,304,0.0,0.0,36,0.00,,---,0.00,VWS V14.01,2013-09-29 13:41:00,
2013-09-29 09:46:00,53.2,27.0,29.95,NW,305,0.0,0.0,36,0.00,,---,0.00,VWS V14.01,2013-09-29 13:46:00,
2013-09-29 09:51:00,53.8,27.5,29.95,NW,305,0.0,0.0,36,0.00,,---,0.00,VWS V14.01,2013-09-29 13:51:00,
2013-09-29 09:56:00,54.0,27.6,29.95,NW,305,0.0,0.0,36,0.00,,---,0.00,VWS V14.01,2013-09-29 13:56:00,
2013-09-29 10:01:00,54.3,28.0,29.95,NW,305,0.0,0.0,36,0.00,,---,0.00,VWS V14.01,2013-09-29 14:01:00,
2013-09-29 10:06:00,54.7,28.3,29.95,NW,305,0.0,0.0,36,0.00,,---,0.00,VWS V14.01,2013-09-29 14:06:00,
2013-09-29 10:11:00,55.0,28.6,29.95,NW,305,0.0,0.0,36,0.00,,---,0.00,VWS V14.01,2013-09-29 14:11:00,
2013-09-29 10:16:00,55.2,28.8,29.92,NW,305,0.0,0.0,36,0.00,,---,0.00,VWS V14.01,2013-09-29 14:16:00,
2013-09-29 10:21:00,55.4,28.2,29.92,NW,305,0.0,0.0,35,0.00,,---,0.00,VWS V14.01,2013-09-29 14:21:00,
2013-09-29 10:26:00,55.6,28.4,29.92,NW,305,0.0,0.0,35,0.00,,---,0.00,VWS V14.01,2013-09-29 14:26:00,
2013-09-29 10:31:00,55.9,28.7,29.92,NW,305,0.0,0.0,35,0.00,,---,0.00,VWS V14.01,2013-09-29 14:31:00,
2013-09-29 10:36:00,56.3,29.0,29.92,NW,305,0.0,0.0,35,0.00,,---,0.00,VWS V14.01,2013-09-29 14:36:00,
2013-09-29 10:41:00,56.7,29.3,29.92,NW,305,0.0,0.0,35,0.00,,---,0.00,VWS V14.01,2013-09-29 14:41:00,
2013-09-29 10:46:00,57.4,30.0,29.92,NW,305,0.0,0.0,35,0.00,,---,0.00,VWS V14.01,2013-09-29 14:46:00,
2013-09-29 10:51:00,57.7,30.3,29.92,NW,305,0.0,0.0,35,0.00,,---,0.00,VWS V14.01,2013-09-29 14:51:00,
2013-09-29 10:56:00,57.9,30.5,29.92,NW,311,3.6,4.0,35,0.00,,---,0.00,VWS V14.01,2013-09-29 14:56:00,
2013-09-29 11:01:00,58.5,30.9,29.92,NNW,332,0.0,0.0,35,0.00,,---,0.00,VWS V14.01,2013-09-29 15:01:00,
2013-09-29 11:06:00,58.6,31.1,29.92,NNW,333,0.0,0.0,35,0.00,,---,0.00,VWS V14.01,2013-09-29 15:06:00,
2013-09-29 11:11:00,58.8,31.2,29.92,NNW,332,0.0,0.0,35,0.00,,---,0.00,VWS V14.01,2013-09-29 15:11:00,
2013-09-29 11:16:00,59.2,30.9,29.92,NNW,332,0.0,0.0,34,0.00,,---,0.00,VWS V14.01,2013-09-29 15:16:00,
2013-09-29 11:21:00,59.5,31.2,29.92,NNE,21,0.0,0.0,34,0.00,,---,0.00,VWS V14.01,2013-09-29 15:21:00,
2013-09-29 11:26:00,59.9,31.5,29.92,North,357,0.0,0.0,34,0.00,,---,0.00,VWS V14.01,2013-09-29 15:26:00,
2013-09-29 11:31:00,60.4,32.0,29.92,North,357,0.0,0.0,34,0.00,,---,0.00,VWS V14.01,2013-09-29 15:31:00,
2013-09-29 11:36:00,61.0,32.4,29.92,North,357,0.0,0.0,34,0.00,,---,0.00,VWS V14.01,2013-09-29 15:36:00,
2013-09-29 11:41:00,61.5,32.9,29.92,WNW,290,0.0,0.0,34,0.00,,---,0.00,VWS V14.01,2013-09-29 15:41:00,
2013-09-29 11:46:00,62.1,33.4,29.92,WNW,290,0.0,0.0,34,0.00,,---,0.00,VWS V14.01,2013-09-29 15:46:00,
2013-09-29 11:51:00,62.4,33.7,29.92,WNW,285,3.1,3.1,34,0.00,,---,0.00,VWS V14.01,2013-09-29 15:51:00,
2013-09-29 11:56:00,62.6,33.9,29.92,NNW,342,0.0,0.0,34,0.00,,---,0.00,VWS V14.01,2013-09-29 15:56:00,
2013-09-29 12:01:00,62.8,34.0,29.92,NNW,342,0.0,0.0,34,0.00,,---,0.00,VWS V14.01,2013-09-29 16:01:00,
2013-09-29 12:06:00,63.0,34.2,29.92,NNW,342,0.0,0.0,34,0.00,,---,0.00,VWS V14.01,2013-09-29 16:06:00,
2013-09-29 12:11:00,63.1,34.3,29.92,NNW,330,0.0,0.0,34,0.00,,---,0.00,VWS V14.01,2013-09-29 16:11:00,
2013-09-29 12:16:00,63.7,34.8,29.92,NNW,330,0.0,0.0,34,0.00,,---,0.00,VWS V14.01,2013-09-29 16:16:00,
2013-09-29 12:21:00,64.0,35.1,29.92,WNW,285,0.0,0.0,34,0.00,,---,0.00,VWS V14.01,2013-09-29 16:21:00,
2013-09-29 12:26:00,64.6,34.8,29.92,SSW,206,0.0,0.0,33,0.00,,---,0.00,VWS V14.01,2013-09-29 16:26:00,
2013-09-29 12:31:00,65.1,35.3,29.89,ENE,67,0.0,0.0,33,0.00,,---,0.00,VWS V14.01,2013-09-29 16:31:00,
2013-09-29 12:36:00,65.5,35.6,29.89,ENE,67,0.0,0.0,33,0.00,,---,0.00,VWS V14.01,2013-09-29 16:36:00,
2013-09-29 12:41:00,66.2,36.3,29.89,WSW,250,0.0,0.0,33,0.00,,---,0.00,VWS V14.01,2013-09-29 16:41:00,
2013-09-29 12:46:00,66.4,36.4,29.89,WNW,289,0.0,0.0,33,0.00,,---,0.00,VWS V14.01,2013-09-29 16:46:00,
2013-09-29 12:50:00,66.0,36.1,29.89,WNW,289,0.0,0.0,33,0.00,,---,0.00,VWS V14.01,2013-09-29 16:50:00,
2013-09-29 12:55:00,65.3,35.5,29.89,WNW,289,0.0,0.0,33,0.00,,---,0.00,VWS V14.01,2013-09-29 16:55:00,
2013-09-29 13:00:00,64.9,35.2,29.89,NNW,327,0.0,0.0,33,0.00,,---,0.00,VWS V14.01,2013-09-29 17:00:00,
2013-09-29 13:05:00,64.9,35.2,29.89,NNW,327,0.0,0.0,33,0.00,,---,0.00,VWS V14.01,2013-09-29 17:05:00,
2013-09-29 13:10:00,65.7,35.8,29.89,NNW,327,0.0,0.0,33,0.00,,---,0.00,VWS V14.01,2013-09-29 17:10:00,
2013-09-29 13:15:00,66.9,36.9,29.89,NNW,327,0.0,0.0,33,0.00,,---,0.00,VWS V14.01,2013-09-29 17:15:00,
2013-09-29 13:20:00,68.4,37.4,29.89,NNW,327,0.0,0.0,32,0.00,,---,0.00,VWS V14.01,2013-09-29 17:20:00,
2013-09-29 13:25:00,69.3,38.2,29.89,NW,326,0.0,0.0,32,0.00,,---,0.00,VWS V14.01,2013-09-29 17:25:00,
2013-09-29 13:30:00,69.8,38.6,29.89,NW,309,0.0,0.0,32,0.00,,---,0.00,VWS V14.01,2013-09-29 17:30:00,
2013-09-29 13:35:00,69.8,38.6,29.89,NNW,327,0.0,0.0,32,0.00,,---,0.00,VWS V14.01,2013-09-29 17:35:00,
2013-09-29 13:40:00,70.3,39.1,29.89,NNW,327,0.0,0.0,32,0.00,,---,0.00,VWS V14.01,2013-09-29 17:40:00,
2013-09-29 13:45:00,70.9,39.6,29.89,West,276,0.0,0.0,32,0.00,,---,0.00,VWS V14.01,2013-09-29 17:45:00,
2013-09-29 13:50:00,71.1,39.7,29.89,NW,319,0.0,0.0,32,0.00,,---,0.00,VWS V14.01,2013-09-29 17:50:00,
2013-09-29 13:55:00,70.2,39.0,29.89,NW,319,0.0,0.0,32,0.00,,---,0.00,VWS V14.01,2013-09-29 17:55:00,
2013-09-29 14:00:00,69.4,38.3,29.86,NW,317,0.0,0.0,32,0.00,,---,0.00,VWS V14.01,2013-09-29 18:00:00,
2013-09-29 14:05:00,68.2,37.2,29.86,NW,317,0.0,0.0,32,0.00,,---,0.00,VWS V14.01,2013-09-29 18:05:00,
2013-09-29 14:11:00,67.6,37.5,29.86,NW,317,0.0,0.0,33,0.00,,---,0.00,VWS V14.01,2013-09-29 18:11:00,
2013-09-29 14:16:00,67.1,37.1,29.86,NW,317,0.0,0.0,33,0.00,,---,0.00,VWS V14.01,2013-09-29 18:16:00,
2013-09-29 14:21:00,66.9,36.9,29.86,NW,317,0.0,0.0,33,0.00,,---,0.00,VWS V14.01,2013-09-29 18:21:00,
2013-09-29 14:26:00,67.1,37.1,29.86,NW,317,0.0,0.0,33,0.00,,---,0.00,VWS V14.01,2013-09-29 18:26:00,
2013-09-29 14:31:00,66.7,36.8,29.86,NW,317,0.0,0.0,33,0.00,,---,0.00,VWS V14.01,2013-09-29 18:31:00,
2013-09-29 14:36:00,66.6,36.6,29.86,NW,317,0.0,0.0,33,0.00,,---,0.00,VWS V14.01,2013-09-29 18:36:00,
2013-09-29 14:40:00,66.4,36.4,29.86,NW,317,0.0,0.0,33,0.00,,---,0.00,VWS V14.01,2013-09-29 18:40:00,
2013-09-29 14:45:00,65.8,36.0,29.86,NW,317,0.0,0.0,33,0.00,,---,0.00,VWS V14.01,2013-09-29 18:45:00,
2013-09-29 14:50:00,65.8,36.0,29.86,NW,317,0.0,0.0,33,0.00,,---,0.00,VWS V14.01,2013-09-29 18:50:00,
2013-09-29 14:55:00,66.0,36.1,29.86,NW,317,0.0,0.0,33,0.00,,---,0.00,VWS V14.01,2013-09-29 18:55:00,
2013-09-29 15:00:00,66.2,36.3,29.86,NW,317,0.0,0.0,33,0.00,,---,0.00,VWS V14.01,2013-09-29 19:00:00,
2013-09-29 15:05:00,67.3,37.2,29.86,NW,317,0.0,0.0,33,0.00,,---,0.00,VWS V14.01,2013-09-29 19:05:00,
2013-09-29 15:10:00,69.1,38.0,29.86,NW,317,0.0,0.0,32,0.00,,---,0.00,VWS V14.01,2013-09-29 19:10:00,
2013-09-29 15:15:00,71.1,39.7,29.86,NW,317,0.0,0.0,32,0.00,,---,0.00,VWS V14.01,2013-09-29 19:15:00,
2013-09-29 15:20:00,72.0,40.5,29.86,NE,44,0.0,0.0,32,0.00,,---,0.00,VWS V14.01,2013-09-29 19:20:00,
2013-09-29 15:25:00,71.1,39.7,29.86,NE,43,0.0,0.0,32,0.00,,---,0.00,VWS V14.01,2013-09-29 19:25:00,
2013-09-29 15:30:00,69.8,38.6,29.86,North,357,0.0,0.0,32,0.00,,---,0.00,VWS V14.01,2013-09-29 19:30:00,
2013-09-29 15:35:00,69.1,38.0,29.86,North,357,0.0,0.0,32,0.00,,---,0.00,VWS V14.01,2013-09-29 19:35:00,
2013-09-29 15:40:00,68.0,37.1,29.86,North,357,0.0,0.0,32,0.00,,---,0.00,VWS V14.01,2013-09-29 19:40:00,
2013-09-29 15:45:00,67.5,37.4,29.86,North,357,0.0,0.0,33,0.00,,---,0.00,VWS V14.01,2013-09-29 19:45:00,
2013-09-29 15:48:00,67.1,37.1,29.86,North,357,0.0,0.0,33,0.00,,---,0.00,VWS V14.01,2013-09-29 19:48:00,
2013-09-29 15:53:00,66.7,36.8,29.86,North,357,0.0,0.0,33,0.00,,---,0.00,VWS V14.01,2013-09-29 19:53:00,
2013-09-29 15:58:00,66.4,36.4,29.86,North,357,0.0,0.0,33,0.00,,---,0.00,VWS V14.01,2013-09-29 19:58:00,
2013-09-29 16:03:00,66.2,36.3,29.86,North,357,0.0,0.0,33,0.00,,---,0.00,VWS V14.01,2013-09-29 20:03:00,
2013-09-29 16:08:00,65.8,36.0,29.86,North,357,0.0,0.0,33,0.00,,---,0.00,VWS V14.01,2013-09-29 20:08:00,
2013-09-29 16:13:00,65.7,35.8,29.86,North,357,0.0,0.0,33,0.00,,---,0.00,VWS V14.01,2013-09-29 20:13:00,
2013-09-29 16:18:00,65.7,35.8,29.86,North,357,0.0,0.0,33,0.00,,---,0.00,VWS V14.01,2013-09-29 20:18:00,
2013-09-29 16:23:00,65.7,35.8,29.86,North,357,0.0,0.0,33,0.00,,---,0.00,VWS V14.01,2013-09-29 20:23:00,
2013-09-29 16:28:00,65.8,36.0,29.86,North,357,0.0,0.0,33,0.00,,---,0.00,VWS V14.01,2013-09-29 20:28:00,
2013-09-29 16:33:00,65.8,36.0,29.86,North,357,0.0,0.0,33,0.00,,---,0.00,VWS V14.01,2013-09-29 20:33:00,
2013-09-29 16:38:00,66.2,36.3,29.86,North,357,0.0,0.0,33,0.00,,---,0.00,VWS V14.01,2013-09-29 20:38:00,
2013-09-29 16:43:00,66.7,36.8,29.86,North,357,0.0,0.0,33,0.00,,---,0.00,VWS V14.01,2013-09-29 20:43:00,
2013-09-29 16:48:00,67.1,37.1,29.83,North,357,0.0,0.0,33,0.00,,---,0.00,VWS V14.01,2013-09-29 20:48:00,
2013-09-29 16:53:00,67.3,37.2,29.83,North,357,0.0,0.0,33,0.00,,---,0.00,VWS V14.01,2013-09-29 20:53:00,
2013-09-29 16:58:00,67.5,37.4,29.83,NW,325,0.0,0.0,33,0.00,,---,0.00,VWS V14.01,2013-09-29 20:58:00,
2013-09-29 17:03:00,66.9,36.9,29.83,NW,325,0.0,0.0,33,0.00,,---,0.00,VWS V14.01,2013-09-29 21:03:00,
2013-09-29 17:08:00,66.6,36.6,29.83,NW,325,0.0,0.0,33,0.00,,---,0.00,VWS V14.01,2013-09-29 21:08:00,
2013-09-29 17:13:00,66.6,36.6,29.83,NW,325,0.0,0.0,33,0.00,,---,0.00,VWS V14.01,2013-09-29 21:13:00,
2013-09-29 17:18:00,66.6,36.6,29.83,NW,325,0.0,0.0,33,0.00,,---,0.00,VWS V14.01,2013-09-29 21:18:00,
2013-09-29 17:23:00,66.4,36.4,29.83,NW,325,0.0,0.0,33,0.00,,---,0.00,VWS V14.01,2013-09-29 21:23:00,
2013-09-29 17:28:00,66.6,36.6,29.83,NW,325,0.0,0.0,33,0.00,,---,0.00,VWS V14.01,2013-09-29 21:28:00,
2013-09-29 17:33:00,66.6,36.6,29.83,NW,325,0.0,0.0,33,0.00,,---,0.00,VWS V14.01,2013-09-29 21:33:00,
2013-09-29 17:38:00,66.4,36.4,29.83,NW,325,0.0,0.0,33,0.00,,---,0.00,VWS V14.01,2013-09-29 21:38:00,
2013-09-29 17:43:00,65.8,36.0,29.83,NW,325,0.0,0.0,33,0.00,,---,0.00,VWS V14.01,2013-09-29 21:43:00,
2013-09-29 17:48:00,65.3,35.5,29.83,NW,325,0.0,0.0,33,0.00,,---,0.00,VWS V14.01,2013-09-29 21:48:00,
2013-09-29 17:53:00,64.9,35.2,29.83,NW,325,0.0,0.0,33,0.00,,---,0.00,VWS V14.01,2013-09-29 21:53:00,
2013-09-29 17:58:00,64.4,34.7,29.83,NW,325,0.0,0.0,33,0.00,,---,0.00,VWS V14.01,2013-09-29 21:58:00,
2013-09-29 18:03:00,63.7,34.8,29.83,NW,325,0.0,0.0,34,0.00,,---,0.00,VWS V14.01,2013-09-29 22:03:00,
2013-09-29 18:08:00,63.1,34.3,29.83,NW,325,0.0,0.0,34,0.00,,---,0.00,VWS V14.01,2013-09-29 22:08:00,
2013-09-29 18:13:00,62.8,34.0,29.83,NW,325,0.0,0.0,34,0.00,,---,0.00,VWS V14.01,2013-09-29 22:13:00,
2013-09-29 18:18:00,62.1,33.4,29.83,NW,325,0.0,0.0,34,0.00,,---,0.00,VWS V14.01,2013-09-29 22:18:00,
2013-09-29 18:23:00,61.5,32.9,29.83,NW,325,0.0,0.0,34,0.00,,---,0.00,VWS V14.01,2013-09-29 22:23:00,
2013-09-29 18:28:00,61.0,32.4,29.83,NW,325,0.0,0.0,34,0.00,,---,0.00,VWS V14.01,2013-09-29 22:28:00,
2013-09-29 18:33:00,60.4,32.0,29.83,NW,325,0.0,0.0,34,0.00,,---,0.00,VWS V14.01,2013-09-29 22:33:00,
2013-09-29 18:38:00,59.9,31.5,29.83,NW,325,0.0,0.0,34,0.00,,---,0.00,VWS V14.01,2013-09-29 22:38:00,
2013-09-29 18:43:00,59.4,31.0,29.83,NW,325,0.0,0.0,34,0.00,,---,0.00,VWS V14.01,2013-09-29 22:43:00,
2013-09-29 18:48:00,59.0,30.7,29.83,NW,325,0.0,0.0,34,0.00,,---,0.00,VWS V14.01,2013-09-29 22:48:00,
2013-09-29 18:53:00,58.6,31.1,29.83,NW,325,0.0,0.0,35,0.00,,---,0.00,VWS V14.01,2013-09-29 22:53:00,
2013-09-29 18:58:00,58.5,30.9,29.83,NW,325,0.0,0.0,35,0.00,,---,0.00,VWS V14.01,2013-09-29 22:58:00,
2013-09-29 19:03:00,58.1,30.6,29.83,NW,325,0.0,0.0,35,0.00,,---,0.00,VWS V14.01,2013-09-29 23:03:00,
2013-09-29 19:08:00,57.9,30.5,29.83,NW,325,0.0,0.0,35,0.00,,---,0.00,VWS V14.01,2013-09-29 23:08:00,
2013-09-29 19:13:00,57.6,30.1,29.83,NW,325,0.0,0.0,35,0.00,,---,0.00,VWS V14.01,2013-09-29 23:13:00,
2013-09-29 19:18:00,57.4,30.0,29.83,NW,325,0.0,0.0,35,0.00,,---,0.00,VWS V14.01,2013-09-29 23:18:00,
2013-09-29 19:23:00,57.2,29.8,29.83,NW,325,0.0,0.0,35,0.00,,---,0.00,VWS V14.01,2013-09-29 23:23:00,
2013-09-29 19:28:00,57.0,29.7,29.83,NW,325,0.0,0.0,35,0.00,,---,0.00,VWS V14.01,2013-09-29 23:28:00,
2013-09-29 19:32:00,56.8,29.5,29.83,NW,325,0.0,0.0,35,0.00,,---,0.00,VWS V14.01,2013-09-29 23:32:00,
2013-09-29 19:37:00,56.8,29.5,29.83,NW,325,0.0,0.0,35,0.00,,---,0.00,VWS V14.01,2013-09-29 23:37:00,
2013-09-29 19:42:00,56.8,29.5,29.83,NW,325,0.0,0.0,35,0.00,,---,0.00,VWS V14.01,2013-09-29 23:42:00,
2013-09-29 19:47:00,56.7,29.3,29.83,NW,325,0.0,0.0,35,0.00,,---,0.00,VWS V14.01,2013-09-29 23:47:00,
2013-09-29 19:52:00,56.5,29.2,29.83,NW,325,0.0,0.0,35,0.00,,---,0.00,VWS V14.01,2013-09-29 23:52:00,
2013-09-29 19:57:00,56.5,29.2,29.83,NW,325,0.0,0.0,35,0.00,,---,0.00,VWS V14.01,2013-09-29 23:57:00,
2013-09-29 20:02:00,56.5,29.2,29.86,NW,325,0.0,0.0,35,0.00,,---,0.00,VWS V14.01,2013-09-30 00:02:00,
2013-09-29 20:07:00,56.3,29.0,29.86,NW,325,0.0,0.0,35,0.00,,---,0.00,VWS V14.01,2013-09-30 00:07:00,
2013-09-29 20:12:00,56.3,29.0,29.86,NW,325,0.0,0.0,35,0.00,,---,0.00,VWS V14.01,2013-09-30 00:12:00,
2013-09-29 20:17:00,56.3,29.0,29.86,NW,325,0.0,0.0,35,0.00,,---,0.00,VWS V14.01,2013-09-30 00:17:00,
2013-09-29 20:22:00,56.1,28.9,29.86,NW,325,0.0,0.0,35,0.00,,---,0.00,VWS V14.01,2013-09-30 00:22:00,
2013-09-29 20:27:00,56.3,29.0,29.86,NW,325,0.0,0.0,35,0.00,,---,0.00,VWS V14.01,2013-09-30 00:27:00,
2013-09-29 20:32:00,56.1,28.9,29.86,NW,325,0.0,0.0,35,0.00,,---,0.00,VWS V14.01,2013-09-30 00:32:00,
2013-09-29 20:37:00,55.9,28.7,29.86,NW,325,0.0,0.0,35,0.00,,---,0.00,VWS V14.01,2013-09-30 00:37:00,
2013-09-29 20:42:00,55.8,28.5,29.86,NW,325,0.0,0.0,35,0.00,,---,0.00,VWS V14.01,2013-09-30 00:42:00,
2013-09-29 20:47:00,55.6,28.4,29.86,NW,325,0.0,0.0,35,0.00,,---,0.00,VWS V14.01,2013-09-30 00:47:00,
2013-09-29 20:52:00,55.8,28.5,29.86,NW,325,0.0,0.0,35,0.00,,---,0.00,VWS V14.01,2013-09-30 00:52:00,
2013-09-29 20:57:00,55.8,28.5,29.86,NW,325,0.0,0.0,35,0.00,,---,0.00,VWS V14.01,2013-09-30 00:57:00,
2013-09-29 21:02:00,55.8,28.5,29.86,NW,325,0.0,0.0,35,0.00,,---,0.00,VWS V14.01,2013-09-30 01:02:00,
2013-09-29 21:07:00,55.6,28.4,29.86,NW,325,0.0,0.0,35,0.00,,---,0.00,VWS V14.01,2013-09-30 01:07:00,
2013-09-29 21:12:00,55.8,28.5,29.86,NW,325,0.0,0.0,35,0.00,,---,0.00,VWS V14.01,2013-09-30 01:12:00,
2013-09-29 21:17:00,55.8,28.5,29.86,NW,325,0.0,0.0,35,0.00,,---,0.00,VWS V14.01,2013-09-30 01:17:00,
2013-09-29 21:22:00,55.8,28.5,29.86,NW,325,0.0,0.0,35,0.00,,---,0.00,VWS V14.01,2013-09-30 01:22:00,
2013-09-29 21:27:00,55.8,28.5,29.86,NW,325,0.0,0.0,35,0.00,,---,0.00,VWS V14.01,2013-09-30 01:27:00,
2013-09-29 21:32:00,55.6,28.4,29.86,NW,325,0.0,0.0,35,0.00,,---,0.00,VWS V14.01,2013-09-30 01:32:00,
2013-09-29 21:37:00,55.4,28.2,29.86,NW,325,0.0,0.0,35,0.00,,---,0.00,VWS V14.01,2013-09-30 01:37:00,
2013-09-29 21:42:00,55.4,28.2,29.86,NW,325,0.0,0.0,35,0.00,,---,0.00,VWS V14.01,2013-09-30 01:42:00,
2013-09-29 21:47:00,55.0,28.6,29.86,NW,325,0.0,0.0,36,0.00,,---,0.00,VWS V14.01,2013-09-30 01:47:00,
2013-09-29 21:52:00,55.0,28.6,29.86,NW,325,0.0,0.0,36,0.00,,---,0.00,VWS V14.01,2013-09-30 01:52:00,
2013-09-29 21:57:00,54.9,28.4,29.86,NW,325,0.0,0.0,36,0.00,,---,0.00,VWS V14.01,2013-09-30 01:57:00,
2013-09-29 22:02:00,54.7,28.3,29.86,NW,325,0.0,0.0,36,0.00,,---,0.00,VWS V14.01,2013-09-30 02:02:00,
2013-09-29 22:07:00,54.5,28.1,29.86,NW,325,0.0,0.0,36,0.00,,---,0.00,VWS V14.01,2013-09-30 02:07:00,
2013-09-29 22:12:00,54.3,28.0,29.86,NW,325,0.0,0.0,36,0.00,,---,0.00,VWS V14.01,2013-09-30 02:12:00,
2013-09-29 22:18:00,54.1,27.8,29.86,NW,325,0.0,0.0,36,0.00,,---,0.00,VWS V14.01,2013-09-30 02:18:00,
2013-09-29 22:23:00,54.0,27.6,29.86,NW,325,0.0,0.0,36,0.00,,---,0.00,VWS V14.01,2013-09-30 02:23:00,
2013-09-29 22:28:00,54.0,27.6,29.86,NW,325,0.0,0.0,36,0.00,,---,0.00,VWS V14.01,2013-09-30 02:28:00,
2013-09-29 22:33:00,54.0,27.6,29.86,NW,325,0.0,0.0,36,0.00,,---,0.00,VWS V14.01,2013-09-30 02:33:00,
2013-09-29 22:38:00,53.8,27.5,29.86,NW,325,0.0,0.0,36,0.00,,---,0.00,VWS V14.01,2013-09-30 02:38:00,
2013-09-29 22:43:00,53.8,27.5,29.86,NW,325,0.0,0.0,36,0.00,,---,0.00,VWS V14.01,2013-09-30 02:43:00,
2013-09-29 22:48:00,53.8,27.5,29.86,NW,325,0.0,0.0,36,0.00,,---,0.00,VWS V14.01,2013-09-30 02:48:00,
2013-09-29 22:53:00,53.6,27.3,29.86,NW,325,0.0,0.0,36,0.00,,---,0.00,VWS V14.01,2013-09-30 02:53:00,
2013-09-29 22:58:00,53.6,27.3,29.86,NW,325,0.0,0.0,36,0.00,,---,0.00,VWS V14.01,2013-09-30 02:58:00,
2013-09-29 23:03:00,53.6,27.3,29.86,NW,325,0.0,0.0,36,0.00,,---,0.00,VWS V14.01,2013-09-30 03:03:00,
2013-09-29 23:08:00,53.4,27.1,29.86,NW,326,0.0,0.0,36,0.00,,---,0.00,VWS V14.01,2013-09-30 03:08:00,
2013-09-29 23:13:00,53.4,27.1,29.86,NW,325,0.0,0.0,36,0.00,,---,0.00,VWS V14.01,2013-09-30 03:13:00,
2013-09-29 23:18:00,53.4,27.1,29.86,NW,325,0.0,0.0,36,0.00,,---,0.00,VWS V14.01,2013-09-30 03:18:00,
2013-09-29 23:23:00,53.2,27.0,29.86,NW,325,0.0,0.0,36,0.00,,---,0.00,VWS V14.01,2013-09-30 03:23:00,
2013-09-29 23:28:00,53.2,27.0,29.86,NW,325,0.0,0.0,36,0.00,,---,0.00,VWS V14.01,2013-09-30 03:28:00,
2013-09-29 23:33:00,53.1,26.8,29.86,NW,325,0.0,0.0,36,0.00,,---,0.00,VWS V14.01,2013-09-30 03:33:00,
2013-09-29 23:38:00,53.1,26.8,29.86,NW,325,0.0,0.0,36,0.00,,---,0.00,VWS V14.01,2013-09-30 03:38:00,
2013-09-29 23:43:00,53.1,26.8,29.86,NW,325,0.0,0.0,36,0.00,,---,0.00,VWS V14.01,2013-09-30 03:43:00,
2013-09-29 23:48:00,52.9,26.7,29.86,NW,325,0.0,0.0,36,0.00,,---,0.00,VWS V14.01,2013-09-30 03:48:00,
2013-09-29 23:53:00,52.7,26.5,29.86,NW,325,0.0,0.0,36,0.00,,---,0.00,VWS V14.01,2013-09-30 03:53:00,
2013-09-29 23:58:00,52.7,26.5,29.86,NW,325,0.0,0.0,36,0.00,,---,0.00,VWS V14.01,2013-09-30 03:58:00,